Location: Unspecified
(7.0620°S, 0.0000°E)
Time: 04:51:33
(UTC+00:00)

Courier 1B Rocket - All Passes

Search period start: 04 April 2026 00:00
Search period end: 14 April 2026 00:00
Orbit: 920 x 1201 km, 28.2° (Epoch: 28 March)

Date Brightness Start Highest point End Pass type
(mag) Time Alt. Az. Time Alt. Az. Time Alt. Az.
4 Apr - 07:49:29 10° NNW 07:55:46 33° NNE 08:02:25 10° E daylight
4 Apr - 09:42:01 10° WNW 09:49:28 78° SSW 09:57:20 10° ESE daylight
4 Apr - 11:37:15 10° WSW 11:43:47 29° SSW 11:50:26 10° SE daylight
4 Apr - 13:34:43 10° SW 13:39:03 15° S 13:43:21 10° SSE daylight
4 Apr - 15:30:44 10° SSW 15:34:50 15° S 15:38:50 10° SE daylight
4 Apr - 17:23:48 10° SW 17:30:01 28° SSE 17:35:51 10° ESE daylight
4 Apr - 19:16:55 10° WSW 19:24:05 80° SSE 19:30:42 10° ENE visible
4 Apr - 21:11:52 10° W 21:17:29 28° NNW 21:22:50 10° NNE visible
5 Apr - 06:49:16 10° NNW 06:54:20 21° NNE 06:59:38 10° ENE daylight
5 Apr - 08:40:44 10° NW 08:47:58 74° NNE 08:55:41 10° ESE daylight
5 Apr - 10:35:01 10° W 10:42:00 39° SSW 10:49:13 10° SE daylight
5 Apr - 12:31:53 10° SW 12:36:57 18° SSW 12:42:02 10° SSE daylight
5 Apr - 14:28:53 10° SSW 14:32:42 14° S 14:36:28 10° SSE daylight
5 Apr - 16:22:33 10° SSW 16:28:12 22° SSE 16:33:36 10° ESE daylight
5 Apr - 18:15:28 10° SW 18:22:40 55° SSE 18:29:19 10° ENE visible
5 Apr - 20:09:38 10° WSW 20:16:13 44° NNW 20:22:23 10° NE visible
5 Apr - 22:08:50 10° NW 22:09:49 10° NNW 22:10:47 10° NNW night (unlit)
6 Apr - 05:49:59 10° N 05:52:51 13° NNE 05:55:47 10° NE daylight
6 Apr - 07:39:47 10° NW 07:46:33 49° NNE 07:53:47 10° ESE daylight
6 Apr - 09:33:09 10° WNW 09:40:19 54° SSW 09:47:53 10° SE daylight
6 Apr - 11:29:11 10° WSW 11:34:56 22° SSW 11:40:48 10° SSE daylight
6 Apr - 13:26:37 10° SSW 13:30:31 14° S 13:34:24 10° SSE daylight
6 Apr - 15:21:14 10° SSW 15:26:14 18° SSE 15:31:06 10° SE daylight
6 Apr - 17:14:07 10° SW 17:21:06 39° SSE 17:27:37 10° E daylight
6 Apr - 19:07:43 10° WSW 19:14:56 69° NNW 19:21:36 10° NE visible
6 Apr - 21:04:01 10° WNW 21:08:24 18° NNW 21:12:37 10° N visible
7 Apr - 06:39:12 10° NNW 06:45:11 32° NNE 06:51:31 10° E daylight
7 Apr - 08:31:38 10° WNW 08:38:46 76° SSW 08:46:26 10° ESE daylight
7 Apr - 10:26:45 10° WSW 10:33:02 28° SSW 10:39:34 10° SE daylight
7 Apr - 12:24:01 10° SW 12:28:20 15° S 12:32:41 10° SSE daylight
7 Apr - 14:19:46 10° SSW 14:24:10 16° S 14:28:30 10° SE daylight
7 Apr - 16:12:51 10° SW 16:19:23 29° SSE 16:25:36 10° E daylight
7 Apr - 18:06:03 10° WSW 18:13:34 81° SSE 18:20:29 10° ENE visible
7 Apr - 20:01:08 10° W 20:07:04 29° NNW 20:12:40 10° NNE visible
8 Apr - 05:39:05 10° NNW 05:43:49 20° NNE 05:48:46 10° ENE visible
8 Apr - 07:30:25 10° NW 07:37:19 75° NNE 07:44:47 10° ESE daylight
8 Apr - 09:24:37 10° W 09:31:16 38° SSW 09:38:19 10° SE daylight
8 Apr - 11:21:20 10° SW 11:26:14 18° SSW 11:31:13 10° SSE daylight
8 Apr - 13:18:02 10° SSW 13:22:01 14° S 13:25:58 10° SE daylight
8 Apr - 15:11:36 10° SSW 15:17:32 23° SSE 15:23:17 10° ESE daylight
8 Apr - 17:04:34 10° SW 17:12:03 57° SSE 17:19:04 10° ENE daylight
8 Apr - 18:58:49 10° WSW 19:05:45 45° NNW 19:12:11 10° NE visible
8 Apr - 20:57:43 10° NW 20:59:24 11° NNW 21:01:04 10° NNW visible
9 Apr - 04:40:00 10° N 04:42:24 12° NNE 04:44:51 10° NE visible
9 Apr - 06:29:32 10° NW 06:35:59 49° NNE 06:42:54 10° ESE daylight
9 Apr - 08:22:50 10° WNW 08:29:39 52° SSW 08:36:58 10° SE daylight
9 Apr - 10:18:45 10° WSW 10:24:14 22° SSW 10:29:54 10° SSE daylight
9 Apr - 12:15:57 10° SSW 12:19:49 14° S 12:23:42 10° SSE daylight
9 Apr - 14:10:20 10° SSW 14:15:33 19° SSE 14:20:42 10° SE daylight
9 Apr - 16:03:12 10° SW 16:10:26 41° SSE 16:17:19 10° E daylight
9 Apr - 17:56:51 10° WSW 18:04:22 68° NNW 18:11:21 10° NE daylight
9 Apr - 19:53:12 10° WNW 19:57:56 19° NNW 20:02:28 10° NNE visible
10 Apr - 05:29:00 10° NNW 05:34:41 31° NNE 05:40:43 10° E visible
10 Apr - 07:21:22 10° WNW 07:28:09 74° SSW 07:35:32 10° ESE daylight
10 Apr - 09:16:24 10° WSW 09:22:22 27° SSW 09:28:39 10° SE daylight
10 Apr - 11:13:32 10° SW 11:17:39 15° S 11:21:50 10° SSE daylight
10 Apr - 13:08:57 10° SSW 13:13:27 16° S 13:17:57 10° SE daylight
10 Apr - 15:01:56 10° SW 15:08:41 31° SSE 15:15:13 10° E daylight
10 Apr - 16:55:09 10° WSW 17:02:55 83° SSE 17:10:11 10° ENE daylight
10 Apr - 18:50:17 10° W 18:56:32 29° NNW 19:02:26 10° NNE visible
11 Apr - 04:28:56 10° NNW 04:33:23 19° NNE 04:38:01 10° ENE visible
11 Apr - 06:20:13 10° NW 06:26:48 75° NNE 06:33:55 10° ESE daylight
11 Apr - 08:14:21 10° W 08:20:39 36° SSW 08:27:22 10° SE daylight
11 Apr - 10:10:59 10° SW 10:15:33 17° S 10:20:16 10° SSE daylight
11 Apr - 12:07:25 10° SSW 12:11:18 14° S 12:15:13 10° SE daylight
11 Apr - 14:00:44 10° SSW 14:06:48 24° SSE 14:12:48 10° ESE daylight
11 Apr - 15:53:39 10° SW 16:01:21 59° SSE 16:08:42 10° ENE daylight
11 Apr - 17:47:55 10° WSW 17:55:08 45° NNW 18:01:54 10° NE daylight
11 Apr - 19:46:34 10° NW 19:48:55 12° NNW 19:51:13 10° N visible
12 Apr - 03:29:57 10° N 03:32:00 12° NNE 03:34:05 10° NE visible
12 Apr - 05:19:21 10° NW 05:25:32 48° NNE 05:32:07 10° ESE visible
12 Apr - 07:12:37 10° W 07:19:05 50° SSW 07:26:05 10° SE daylight
12 Apr - 09:08:31 10° WSW 09:13:36 20° SSW 09:18:55 10° SSE daylight
12 Apr - 11:05:31 10° SSW 11:09:08 14° S 11:12:47 10° SSE daylight
12 Apr - 12:59:35 10° SSW 13:04:49 19° SSE 13:10:04 10° ESE daylight
12 Apr - 14:52:20 10° SW 14:59:41 42° SSE 15:06:51 10° E daylight
12 Apr - 16:45:57 10° WSW 16:53:41 68° NNW 17:01:00 10° NE daylight
12 Apr - 18:42:18 10° WNW 18:47:23 19° NNW 18:52:15 10° NNE visible
13 Apr - 04:18:49 10° NNW 04:24:17 31° NNE 04:30:01 10° E visible
13 Apr - 06:11:12 10° WNW 06:17:41 72° SSW 06:24:42 10° SE daylight
13 Apr - 08:06:13 10° WSW 08:11:47 26° SSW 08:17:41 10° SE daylight
13 Apr - 10:03:18 10° SW 10:06:59 14° S 10:10:48 10° SSE daylight
13 Apr - 11:58:22 10° SSW 12:02:45 16° S 12:07:11 10° SE daylight
13 Apr - 13:51:08 10° SW 13:57:55 31° SSE 14:04:39 10° E daylight
13 Apr - 15:44:16 10° WSW 15:52:10 84° SSE 15:59:44 10° ENE daylight
13 Apr - 17:39:23 10° W 17:45:54 30° NNW 17:52:07 10° NNE daylight
